Time,TemperatureF,DewpointF,PressureIn,WindDirection,WindDirectionDegrees,WindSpeedMPH,WindSpeedGustMPH,Humidity,HourlyPrecipIn,Conditions,Clouds,dailyrainin,SoftwareType,DateUTC
2013-01-09 00:22:00,55.0,35.0,30.02,North,0,0.0,-999.0,47,0.00,,,-99.99,,2013-01-09 08:22:00,
2013-01-09 00:32:00,55.0,35.0,30.02,North,0,0.0,-999.0,47,0.00,,,-99.99,,2013-01-09 08:32:00,
2013-01-09 00:42:00,55.0,35.0,30.02,North,0,0.0,-999.0,47,0.00,,,-99.99,,2013-01-09 08:42:00,
2013-01-09 00:52:00,55.0,35.0,30.02,North,0,0.0,-999.0,47,0.00,,,-99.99,,2013-01-09 08:52:00,
2013-01-09 01:22:00,52.0,36.0,30.02,North,0,0.0,-999.0,54,0.00,,,-99.99,,2013-01-09 09:22:00,
2013-01-09 01:32:00,52.0,36.0,30.02,North,0,0.0,-999.0,54,0.00,,,-99.99,,2013-01-09 09:32:00,
2013-01-09 01:42:00,52.0,36.0,30.02,North,0,0.0,-999.0,54,0.00,,,-99.99,,2013-01-09 09:42:00,
2013-01-09 01:53:00,52.0,36.0,30.02,North,0,0.0,-999.0,54,0.00,,,-99.99,,2013-01-09 09:53:00,
2013-01-09 02:22:00,51.0,36.0,30.02,North,0,0.0,-999.0,57,0.00,,,-99.99,,2013-01-09 10:22:00,
2013-01-09 02:32:00,51.0,36.0,30.02,North,0,0.0,-999.0,57,0.00,,,-99.99,,2013-01-09 10:32:00,
2013-01-09 02:42:00,51.0,36.0,30.02,North,0,0.0,-999.0,57,0.00,,,-99.99,,2013-01-09 10:42:00,
2013-01-09 02:52:00,51.0,36.0,30.02,North,0,0.0,-999.0,57,0.00,,,-99.99,,2013-01-09 10:52:00,
2013-01-09 03:22:00,49.0,37.0,30.03,North,0,0.0,-999.0,62,0.00,,,-99.99,,2013-01-09 11:22:00,
2013-01-09 03:32:00,49.0,37.0,30.03,North,0,0.0,-999.0,62,0.00,,,-99.99,,2013-01-09 11:32:00,
2013-01-09 04:22:00,48.0,37.0,30.02,North,0,0.0,-999.0,66,0.00,,,-99.99,,2013-01-09 12:22:00,
2013-01-09 04:33:00,48.0,37.0,30.02,North,0,0.0,-999.0,66,0.00,,,-99.99,,2013-01-09 12:33:00,
2013-01-09 04:42:00,48.0,37.0,30.02,North,0,0.0,-999.0,66,0.00,,,-99.99,,2013-01-09 12:42:00,
2013-01-09 04:52:00,48.0,37.0,30.02,North,0,0.0,-999.0,66,0.00,,,-99.99,,2013-01-09 12:52:00,
2013-01-09 05:22:00,47.0,37.0,30.03,North,0,0.0,-999.0,68,0.00,,,-99.99,,2013-01-09 13:22:00,
2013-01-09 05:33:00,47.0,37.0,30.03,North,0,0.0,-999.0,68,0.00,,,-99.99,,2013-01-09 13:33:00,
2013-01-09 05:42:00,47.0,37.0,30.03,North,0,0.0,-999.0,68,0.00,,,-99.99,,2013-01-09 13:42:00,
2013-01-09 05:52:00,47.0,37.0,30.03,North,0,0.0,-999.0,68,0.00,,,-99.99,,2013-01-09 13:52:00,
2013-01-09 06:22:00,46.0,37.0,30.04,North,0,0.0,-999.0,72,0.00,,,-99.99,,2013-01-09 14:22:00,
2013-01-09 06:33:00,46.0,37.0,30.04,North,0,0.0,-999.0,72,0.00,,,-99.99,,2013-01-09 14:33:00,
2013-01-09 06:43:00,46.0,37.0,30.04,North,0,0.0,-999.0,72,0.00,,,-99.99,,2013-01-09 14:43:00,
2013-01-09 06:52:00,46.0,37.0,30.04,North,0,0.0,-999.0,72,0.00,,,-99.99,,2013-01-09 14:52:00,
2013-01-09 07:22:00,45.0,37.0,30.06,North,0,0.0,-999.0,74,0.00,,,-99.99,,2013-01-09 15:22:00,
2013-01-09 07:33:00,45.0,37.0,30.06,North,0,0.0,-999.0,74,0.00,,,-99.99,,2013-01-09 15:33:00,
2013-01-09 07:42:00,45.0,37.0,30.06,North,0,0.0,-999.0,74,0.00,,,-99.99,,2013-01-09 15:42:00,
2013-01-09 07:52:00,45.0,37.0,30.06,North,0,0.0,-999.0,74,0.00,,,-99.99,,2013-01-09 15:52:00,
2013-01-09 08:22:00,46.0,39.0,30.09,North,0,0.0,-999.0,75,0.00,,,-99.99,,2013-01-09 16:22:00,
2013-01-09 08:33:00,46.0,39.0,30.09,North,0,0.0,-999.0,75,0.00,,,-99.99,,2013-01-09 16:33:00,
2013-01-09 08:42:00,46.0,39.0,30.09,North,0,0.0,-999.0,75,0.00,,,-99.99,,2013-01-09 16:42:00,
2013-01-09 08:52:00,46.0,39.0,30.09,North,0,0.0,-999.0,75,0.00,,,-99.99,,2013-01-09 16:52:00,
2013-01-09 09:22:00,53.0,39.0,30.10,North,0,0.0,-999.0,59,0.00,,,-99.99,,2013-01-09 17:22:00,
2013-01-09 09:32:00,53.0,39.0,30.10,North,0,0.0,-999.0,59,0.00,,,-99.99,,2013-01-09 17:32:00,
2013-01-09 09:43:00,53.0,39.0,30.10,North,0,0.0,-999.0,59,0.00,,,-99.99,,2013-01-09 17:43:00,
2013-01-09 09:53:00,53.0,39.0,30.10,North,0,0.0,-999.0,59,0.00,,,-99.99,,2013-01-09 17:53:00,
2013-01-09 10:23:00,65.0,39.0,30.09,North,0,0.0,-999.0,39,0.00,,,-99.99,,2013-01-09 18:23:00,
2013-01-09 10:33:00,65.0,39.0,30.09,North,0,0.0,-999.0,39,0.00,,,-99.99,,2013-01-09 18:33:00,
2013-01-09 10:43:00,65.0,39.0,30.09,North,0,0.0,-999.0,39,0.00,,,-99.99,,2013-01-09 18:43:00,
2013-01-09 10:52:00,65.0,39.0,30.09,North,0,0.0,-999.0,39,0.00,,,-99.99,,2013-01-09 18:52:00,
2013-01-09 11:22:00,68.0,37.0,30.05,East,100,4.0,-999.0,32,0.00,,,-99.99,,2013-01-09 19:22:00,
2013-01-09 11:33:00,68.0,37.0,30.05,East,100,4.0,-999.0,32,0.00,,,-99.99,,2013-01-09 19:33:00,
2013-01-09 11:43:00,68.0,37.0,30.05,East,100,4.0,-999.0,32,0.00,,,-99.99,,2013-01-09 19:43:00,
2013-01-09 11:52:00,68.0,37.0,30.05,East,100,4.0,-999.0,32,0.00,,,-99.99,,2013-01-09 19:52:00,
2013-01-09 12:22:00,70.0,37.0,30.01,North,0,0.0,-999.0,30,0.00,,,-99.99,,2013-01-09 20:22:00,
2013-01-09 12:33:00,70.0,37.0,30.01,North,0,0.0,-999.0,30,0.00,,,-99.99,,2013-01-09 20:33:00,
2013-01-09 12:42:00,70.0,37.0,30.01,North,0,0.0,-999.0,30,0.00,,,-99.99,,2013-01-09 20:42:00,
2013-01-09 12:52:00,70.0,37.0,30.01,North,0,0.0,-999.0,30,0.00,,,-99.99,,2013-01-09 20:52:00,
2013-01-09 13:22:00,73.0,37.0,29.98,ESE,110,2.0,-999.0,27,0.00,,,-99.99,,2013-01-09 21:22:00,
2013-01-09 13:33:00,73.0,37.0,29.98,ESE,110,2.0,-999.0,27,0.00,,,-99.99,,2013-01-09 21:33:00,
2013-01-09 13:43:00,73.0,37.0,29.98,ESE,110,2.0,-999.0,27,0.00,,,-99.99,,2013-01-09 21:43:00,
2013-01-09 13:52:00,73.0,37.0,29.98,ESE,110,2.0,-999.0,27,0.00,,,-99.99,,2013-01-09 21:52:00,
2013-01-09 14:22:00,74.0,36.0,29.96,North,0,0.0,-999.0,25,0.00,,,-99.99,,2013-01-09 22:22:00,
2013-01-09 14:33:00,74.0,36.0,29.96,North,0,0.0,-999.0,25,0.00,,,-99.99,,2013-01-09 22:33:00,
2013-01-09 14:42:00,74.0,36.0,29.96,North,0,0.0,-999.0,25,0.00,,,-99.99,,2013-01-09 22:42:00,
2013-01-09 14:52:00,74.0,36.0,29.96,North,0,0.0,-999.0,25,0.00,,,-99.99,,2013-01-09 22:52:00,
2013-01-09 15:22:00,74.0,37.0,29.95,North,0,0.0,-999.0,26,0.00,,,-99.99,,2013-01-09 23:22:00,
2013-01-09 15:32:00,74.0,37.0,29.95,North,0,0.0,-999.0,26,0.00,,,-99.99,,2013-01-09 23:32:00,
2013-01-09 15:42:00,74.0,37.0,29.95,North,0,0.0,-999.0,26,0.00,,,-99.99,,2013-01-09 23:42:00,
2013-01-09 15:52:00,74.0,37.0,29.95,North,0,0.0,-999.0,26,0.00,,,-99.99,,2013-01-09 23:52:00,
2013-01-09 16:22:00,72.0,36.0,29.93,North,0,0.0,-999.0,27,0.00,,,-99.99,,2013-01-10 00:22:00,
2013-01-09 16:32:00,72.0,36.0,29.93,North,0,0.0,-999.0,27,0.00,,,-99.99,,2013-01-10 00:32:00,
2013-01-09 16:42:00,72.0,36.0,29.93,North,0,0.0,-999.0,27,0.00,,,-99.99,,2013-01-10 00:42:00,
2013-01-09 16:52:00,72.0,36.0,29.93,North,0,0.0,-999.0,27,0.00,,,-99.99,,2013-01-10 00:52:00,
2013-01-09 17:22:00,69.0,36.0,29.92,North,0,0.0,-999.0,30,0.00,,,-99.99,,2013-01-10 01:22:00,
2013-01-09 17:32:00,69.0,36.0,29.92,North,0,0.0,-999.0,30,0.00,,,-99.99,,2013-01-10 01:32:00,
2013-01-09 17:42:00,69.0,36.0,29.92,North,0,0.0,-999.0,30,0.00,,,-99.99,,2013-01-10 01:42:00,
2013-01-09 17:52:00,69.0,36.0,29.92,North,0,0.0,-999.0,30,0.00,,,-99.99,,2013-01-10 01:52:00,
2013-01-09 18:22:00,65.0,37.0,29.92,North,0,0.0,-999.0,35,0.00,,,-99.99,,2013-01-10 02:22:00,
2013-01-09 18:32:00,65.0,37.0,29.92,North,0,0.0,-999.0,35,0.00,,,-99.99,,2013-01-10 02:32:00,
2013-01-09 18:42:00,65.0,37.0,29.92,North,0,0.0,-999.0,35,0.00,,,-99.99,,2013-01-10 02:42:00,
2013-01-09 18:52:00,65.0,37.0,29.92,North,0,0.0,-999.0,35,0.00,,,-99.99,,2013-01-10 02:52:00,
2013-01-09 19:22:00,62.0,39.0,29.92,North,0,0.0,-999.0,42,0.00,,,-99.99,,2013-01-10 03:22:00,
2013-01-09 19:32:00,62.0,39.0,29.92,North,0,0.0,-999.0,42,0.00,,,-99.99,,2013-01-10 03:32:00,
2013-01-09 19:42:00,62.0,39.0,29.92,North,0,0.0,-999.0,42,0.00,,,-99.99,,2013-01-10 03:42:00,
2013-01-09 19:52:00,62.0,39.0,29.92,North,0,0.0,-999.0,42,0.00,,,-99.99,,2013-01-10 03:52:00,
2013-01-09 20:22:00,59.0,40.0,29.91,North,0,0.0,-999.0,49,0.00,,,-99.99,,2013-01-10 04:22:00,
2013-01-09 20:32:00,59.0,40.0,29.91,North,0,0.0,-999.0,49,0.00,,,-99.99,,2013-01-10 04:32:00,
2013-01-09 20:42:00,59.0,40.0,29.91,North,0,0.0,-999.0,49,0.00,,,-99.99,,2013-01-10 04:42:00,
2013-01-09 20:52:00,59.0,40.0,29.91,North,0,0.0,-999.0,49,0.00,,,-99.99,,2013-01-10 04:52:00,
2013-01-09 21:22:00,57.0,40.0,29.89,North,0,0.0,-999.0,53,0.00,,,-99.99,,2013-01-10 05:22:00,
2013-01-09 21:33:00,57.0,40.0,29.89,North,0,0.0,-999.0,53,0.00,,,-99.99,,2013-01-10 05:33:00,
2013-01-09 21:42:00,57.0,40.0,29.89,North,0,0.0,-999.0,53,0.00,,,-99.99,,2013-01-10 05:42:00,
2013-01-09 21:52:00,57.0,40.0,29.89,North,0,0.0,-999.0,53,0.00,,,-99.99,,2013-01-10 05:52:00,
2013-01-09 22:22:00,56.0,41.0,29.89,North,0,0.0,-999.0,58,0.00,,,-99.99,,2013-01-10 06:22:00,
2013-01-09 22:32:00,56.0,41.0,29.89,North,0,0.0,-999.0,58,0.00,,,-99.99,,2013-01-10 06:32:00,
2013-01-09 23:42:00,55.0,41.0,29.87,North,0,0.0,-999.0,59,0.00,,,-99.99,,2013-01-10 07:42:00,